Home > Weather > Ras al-Khaimah > Past weeks

Flag for United Arab Emirates Weather for the Past 2 Weeks in Ras al-Khaimah, Ras al-Khaimah, United Arab Emirates

Now
84 °F

Clear.


Feels Like: 82 °F
Forecast: 73 / 101 °F
Wind: No wind

Location: Ras Al Khaimah International Airport

Current Time: Apr 29, 2016 at 10:14:24 PM

Latest Report: Apr 29, 2016 at 9:00 PM


Visibility: 10 mi

Pressure: 29.77 "Hg

Humidity: 31%

Dew Point: 50 °F

Location of Ras al-KhaimahLocation

Historic Weather in Ras al-Khaimah — Graph

°F

Ras al-Khaimah Temperature Yesterday

Maximum temperature yesterday: 106 °F (at 11:00 AM)
Minimum temperature yesterday: 68 °F (at 5:00 AM)
Average temperature yesterday: 88 °F

High & Low Weather Summary for the Past Weeks

 TemperatureHumidityPressure
High106 °F (Apr 27, 12:00 PM)100% (Apr 16, 6:00 AM)30.01 "Hg (Apr 16, 6:00 AM)
Low63 °F (Apr 25, 5:00 AM)6% (Apr 27, 12:00 PM)29.53 "Hg (Apr 15, 12:00 AM)
Average80 °F44%29.83 "Hg
* Reported Apr 14 9:00 PM — Apr 29 9:00 PM, Ras al-Khaimah, Weather by CustomWeather, © 2016

Note: Actual official high and low records may vary slightly from our data, if they occured in-between our weather recording intervals... More about our weather records

Advertising

Ras al-Khaimah Weather History for the Previous 24 Hours

Scroll right to see more
 ConditionsComfort  
Time TempWeatherWind HumidityBarometerVisibility
9:00 PM
Fri, Apr 29
84 °FClear.No wind31%29.77 "Hg10 mi
8:00 PM88 °FClear.3 mph27%29.77 "Hg10 mi
7:00 PM91 °FClear.7 mph23%29.74 "Hg10 mi
6:00 PM97 °FSunny.8 mph18%29.74 "Hg10 mi
5:00 PM100 °FSunny.12 mph14%29.74 "Hg10 mi
4:00 PM104 °FSunny.13 mph10%29.74 "Hg10 mi
3:00 PM104 °FSunny.13 mph13%29.74 "Hg10 mi
2:00 PM102 °FPassing clouds.14 mph11%29.74 "HgN/A
1:00 PM106 °FSunny.13 mph14%29.77 "Hg10 mi
12:00 PM104 °FSunny.15 mph12%29.77 "Hg10 mi
11:00 AM104 °FPassing clouds.14 mph13%29.80 "HgN/A
10:00 AM102 °FPassing clouds.8 mph14%29.80 "HgN/A
9:00 AM100 °FSunny.7 mph17%29.80 "Hg10 mi
8:00 AM91 °FClear.2 mph26%29.77 "Hg4 mi
7:00 AM81 °FSunny.5 mph42%29.77 "Hg10 mi
6:00 AM77 °FSunny.2 mph47%29.77 "Hg10 mi
5:00 AM81 °FClear.2 mph39%29.74 "Hg10 mi
4:00 AM81 °FClear.2 mph42%29.74 "Hg5 mi
3:00 AM79 °FClear.3 mph42%29.74 "Hg5 mi
2:00 AM82 °FClear.5 mph37%29.74 "Hg5 mi
1:00 AM86 °FClear.3 mph33%29.77 "Hg5 mi
12:00 AM86 °FClear.2 mph33%29.77 "Hg5 mi
11:00 PM
Thu, Apr 28
88 °FClear.2 mph33%29.77 "Hg5 mi
10:00 PM90 °FClear.2 mph31%29.77 "Hg4 mi
Weather by CustomWeather, © 2016

See weather overviewHow to use our weather pages